SB KEPS @ AMSAT $ORB10182.O Orbital Elements 10182.OSCAR
HR AMSAT ORBITAL ELEMENTS FOR OSCAR SATELLITES FROM WA5QGD FORT WORTH,TX July 1, 2010 Send Subscribe/unsubscribe to KEPS at http://www.amsat.org/mailman/listinfo/keps BID: ORB10182.O TO ALL RADIO AMATEURS BT
Satellite: AO-07 Catalog number: 07530 Epoch time: 10182.56777395 Element set: 815 Inclination: 101.3996 deg RA of node: 197.8754 deg Eccentricity: 0.0011615 Arg of perigee: 246.5386 deg Mean anomaly: 113.4469 deg Mean motion: 12.53578781 rev/day Decay rate: -2.7e-07 rev/day^2 Epoch rev: 63025 Checksum: 327
Satellite: FO-29 Catalog number: 24278 Epoch time: 10182.74768864 Element set: 343 Inclination: 098.5141 deg RA of node: 009.8650 deg Eccentricity: 0.0351478 Arg of perigee: 086.0832 deg Mean anomaly: 278.0409 deg Mean motion: 13.52950437 rev/day Decay rate: -1.28e-06 rev/day^2 Epoch rev: 68507 Checksum: 334
Satellite: SO-33 Catalog number: 25509 Epoch time: 10181.81930802 Element set: 0745 Inclination: 031.4313 deg RA of node: 071.4166 deg Eccentricity: 0.0353759 Arg of perigee: 049.0943 deg Mean anomaly: 313.9753 deg Mean motion: 14.28312746 rev/day Decay rate: 2.17e-06 rev/day^2 Epoch rev: 61000 Checksum: 282
Satellite: RS-22 Catalog number: 27939 Epoch time: 10182.61910159 Element set: 321 Inclination: 097.8906 deg RA of node: 047.4919 deg Eccentricity: 0.0014093 Arg of perigee: 018.9316 deg Mean anomaly: 341.2411 deg Mean motion: 14.63430155 rev/day Decay rate: 6.1e-07 rev/day^2 Epoch rev: 36106 Checksum: 284
Satellite: VO-52 Catalog number: 28650 Epoch time: 10181.23382877 Element set: 0541 Inclination: 097.6918 deg RA of node: 234.1597 deg Eccentricity: 0.0026090 Arg of perigee: 232.4227 deg Mean anomaly: 127.4664 deg Mean motion: 14.81764240 rev/day Decay rate: 1.2e-07 rev/day^2 Epoch rev: 27862 Checksum: 305
Satellite: SO-67 Catalog number: 35870 Epoch time: 10182.92501391 Element set: 869 Inclination: 097.3306 deg RA of node: 231.6709 deg Eccentricity: 0.0004563 Arg of perigee: 061.1849 deg Mean anomaly: 064.0253 deg Mean motion: 15.20939422 rev/day Decay rate: 7.04e-06 rev/day^2 Epoch rev: 4369 Checksum: 304
Satellite: HO-68 Catalog number: 36122 Epoch time: 10182.68968790 Element set: 445 Inclination: 100.4685 deg RA of node: 242.9728 deg Eccentricity: 0.0007183 Arg of perigee: 305.5862 deg Mean anomaly: 054.4583 deg Mean motion: 13.16280972 rev/day Decay rate: -4.5e-07 rev/day^2 Epoch rev: 2612 Checksum: 312
/EX SB KEPS @ AMSAT $ORB10182.D Orbital Elements 10182.MICROS
HR AMSAT ORBITAL ELEMENTS FOR THE MICROSATS FROM WA5QGD FORT WORTH,TX July 1, 2010 Send Subscribe/unsubscribe to KEPS at http://www.amsat.org/mailman/listinfo/keps BID: ORB10182.D TO ALL RADIO AMATEURS BT
Satellite: UO-11 Catalog number: 14781 Epoch time: 10181.34291029 Element set: 0278 Inclination: 098.0533 deg RA of node: 233.1246 deg Eccentricity: 0.0008943 Arg of perigee: 188.0257 deg Mean anomaly: 172.0798 deg Mean motion: 14.79812360 rev/day Decay rate: 1.5e-07 rev/day^2 Epoch rev: 41375 Checksum: 297
Satellite: AO-16 Catalog number: 20439 Epoch time: 10181.88528790 Element set: 0935 Inclination: 098.3322 deg RA of node: 139.2526 deg Eccentricity: 0.0011778 Arg of perigee: 122.8522 deg Mean anomaly: 237.3801 deg Mean motion: 14.31865317 rev/day Decay rate: -1.6e-07 rev/day^2 Epoch rev: 06734 Checksum: 303
Satellite: LO-19 Catalog number: 20442 Epoch time: 10182.43975604 Element set: 844 Inclination: 098.2938 deg RA of node: 145.5294 deg Eccentricity: 0.0012799 Arg of perigee: 116.8640 deg Mean anomaly: 243.3871 deg Mean motion: 14.32096222 rev/day Decay rate: -6.5e-07 rev/day^2 Epoch rev: 6759 Checksum: 320
Satellite: AO-27 Catalog number: 22825 Epoch time: 10182.43401544 Element set: 567 Inclination: 098.4850 deg RA of node: 130.0161 deg Eccentricity: 0.0007817 Arg of perigee: 222.5260 deg Mean anomaly: 137.5313 deg Mean motion: 14.29301401 rev/day Decay rate: 1.00e-06 rev/day^2 Epoch rev: 87408 Checksum: 257
Satellite: IO-26 Catalog number: 22826 Epoch time: 10182.56691951 Element set: 303 Inclination: 098.4800 deg RA of node: 130.7416 deg Eccentricity: 0.0008319 Arg of perigee: 217.2165 deg Mean anomaly: 142.8435 deg Mean motion: 14.29557022 rev/day Decay rate: -1.4e-07 rev/day^2 Epoch rev: 87421 Checksum: 287
Satellite: GO-32 Catalog number: 25397 Epoch time: 10181.52924685 Element set: 0223 Inclination: 098.3116 deg RA of node: 188.2445 deg Eccentricity: 0.0000850 Arg of perigee: 170.6147 deg Mean anomaly: 189.5051 deg Mean motion: 14.23180370 rev/day Decay rate: -1.5e-07 rev/day^2 Epoch rev: 62194 Checksum: 287
Satellite: NO-44 Catalog number: 26931 Epoch time: 10181.42660123 Element set: 0496 Inclination: 067.0496 deg RA of node: 169.8630 deg Eccentricity: 0.0005423 Arg of perigee: 262.7404 deg Mean anomaly: 097.3093 deg Mean motion: 14.29600424 rev/day Decay rate: -2.01e-06 rev/day^2 Epoch rev: 45664 Checksum: 289
Satellite: SO-50 Catalog number: 27607 Epoch time: 10182.48377304 Element set: 212 Inclination: 064.5590 deg RA of node: 313.0925 deg Eccentricity: 0.0035400 Arg of perigee: 070.0444 deg Mean anomaly: 290.4437 deg Mean motion: 14.71551325 rev/day Decay rate: 8.0e-08 rev/day^2 Epoch rev: 40448 Checksum: 266
Satellite: CO-55 Catalog number: 27844 Epoch time: 10181.54665455 Element set: 0879 Inclination: 098.7087 deg RA of node: 190.3279 deg Eccentricity: 0.0010391 Arg of perigee: 127.4410 deg Mean anomaly: 232.7729 deg Mean motion: 14.20715329 rev/day Decay rate: 5.0e-07 rev/day^2 Epoch rev: 36298 Checksum: 323
Satellite: CO-57 Catalog number: 27848 Epoch time: 10182.56431638 Element set: 831 Inclination: 098.7122 deg RA of node: 190.4271 deg Eccentricity: 0.0010298 Arg of perigee: 129.8714 deg Mean anomaly: 230.3372 deg Mean motion: 14.20507630 rev/day Decay rate: 6.1e-07 rev/day^2 Epoch rev: 36308 Checksum: 292
Satellite: AO-51 Catalog number: 28375 Epoch time: 10181.48367536 Element set: 0713 Inclination: 098.0625 deg RA of node: 174.2221 deg Eccentricity: 0.0085203 Arg of perigee: 056.8770 deg Mean anomaly: 304.0562 deg Mean motion: 14.40689204 rev/day Decay rate: 9.0e-08 rev/day^2 Epoch rev: 31542 Checksum: 289
Satellite: GENESAT1 Catalog number: 29655 Epoch time: 10182.71638784 Element set: 140 Inclination: 040.0155 deg RA of node: 293.5207 deg Eccentricity: 0.0008725 Arg of perigee: 048.6689 deg Mean anomaly: 311.4995 deg Mean motion: 15.98538407 rev/day Decay rate: 2.03407e-03 rev/day^2 Epoch rev: 20231 Checksum: 307
Satellite: CP3 Catalog number: 31129 Epoch time: 10181.51316043 Element set: 0615 Inclination: 097.9356 deg RA of node: 220.3710 deg Eccentricity: 0.0103820 Arg of perigee: 190.9533 deg Mean anomaly: 168.9594 deg Mean motion: 14.52272147 rev/day Decay rate: 2.16e-06 rev/day^2 Epoch rev: 16979 Checksum: 290
Satellite: CO-65 Catalog number: 32785 Epoch time: 10182.41398721 Element set: 721 Inclination: 097.8953 deg RA of node: 247.1446 deg Eccentricity: 0.0013880 Arg of perigee: 236.8435 deg Mean anomaly: 123.1467 deg Mean motion: 14.81673774 rev/day Decay rate: 4.75e-06 rev/day^2 Epoch rev: 11759 Checksum: 334
Satellite: KKS-1 Catalog number: 33493 Epoch time: 10182.57752785 Element set: 621 Inclination: 098.0875 deg RA of node: 302.1933 deg Eccentricity: 0.0021396 Arg of perigee: 094.4055 deg Mean anomaly: 265.9605 deg Mean motion: 14.81022470 rev/day Decay rate: 4.31e-06 rev/day^2 Epoch rev: 7761 Checksum: 297
Satellite: SOHLA-1 Catalog number: 33496 Epoch time: 10181.77915786 Element set: 0142 Inclination: 098.0609 deg RA of node: 290.6791 deg Eccentricity: 0.0006958 Arg of perigee: 151.2033 deg Mean anomaly: 208.9566 deg Mean motion: 14.69500541 rev/day Decay rate: 6.2e-07 rev/day^2 Epoch rev: 07687 Checksum: 321
/EX SB KEPS @ AMSAT $ORB10182.W Orbital Elements 10182.WEATHER
HR AMSAT ORBITAL ELEMENTS FOR WEATHER SATELLITES FROM WA5QGD FORT WORTH,TX July 1, 2010 Send Subscribe/unsubscribe to KEPS at http://www.amsat.org/mailman/listinfo/keps BID: ORB10182.W TO ALL RADIO AMATEURS BT
Satellite: NOAA-10 Catalog number: 16969 Epoch time: 10181.61149397 Element set: 0116 Inclination: 098.6543 deg RA of node: 210.4526 deg Eccentricity: 0.0012264 Arg of perigee: 168.4756 deg Mean anomaly: 191.6720 deg Mean motion: 14.27420333 rev/day Decay rate: 5.1e-07 rev/day^2 Epoch rev: 23749 Checksum: 295
Satellite: NOAA-11 Catalog number: 19531 Epoch time: 10181.32251370 Element set: 0128 Inclination: 098.7704 deg RA of node: 270.1243 deg Eccentricity: 0.0012241 Arg of perigee: 108.2946 deg Mean anomaly: 251.9582 deg Mean motion: 14.14928071 rev/day Decay rate: -1.80e-06 rev/day^2 Epoch rev: 12299 Checksum: 272
Satellite: NOAA-12 Catalog number: 21263 Epoch time: 10181.82635799 Element set: 0616 Inclination: 098.7642 deg RA of node: 194.9828 deg Eccentricity: 0.0013175 Arg of perigee: 124.0041 deg Mean anomaly: 236.2384 deg Mean motion: 14.25641604 rev/day Decay rate: 6.5e-07 rev/day^2 Epoch rev: 99434 Checksum: 308
Satellite: MET-3/5 Catalog number: 21655 Epoch time: 10181.70265413 Element set: 850 Inclination: 082.5591 deg RA of node: 299.0856 deg Eccentricity: 0.0012543 Arg of perigee: 319.7892 deg Mean anomaly: 040.2287 deg Mean motion: 13.17020882 rev/day Decay rate: 5.1e-07 rev/day^2 Epoch rev: 90745 Checksum: 299
Satellite: MET-2/21 Catalog number: 22782 Epoch time: 10182.53730931 Element set: 817 Inclination: 082.5468 deg RA of node: 241.0568 deg Eccentricity: 0.0022552 Arg of perigee: 006.9608 deg Mean anomaly: 353.1865 deg Mean motion: 13.83645476 rev/day Decay rate: 4.0e-08 rev/day^2 Epoch rev: 85006 Checksum: 302
Satellite: OKEAN-4 Catalog number: 23317 Epoch time: 10181.68277031 Element set: 0272 Inclination: 082.5410 deg RA of node: 341.2596 deg Eccentricity: 0.0021528 Arg of perigee: 193.2978 deg Mean anomaly: 166.7695 deg Mean motion: 14.82830692 rev/day Decay rate: 2.43e-06 rev/day^2 Epoch rev: 84845 Checksum: 314
